Retour au catalogue

METEOR 2-19

ActifMétéoPO
NORAD 20670·PAYLOAD·🇷🇺 Russia

Lancé Jun 27, 1990 depuis Plesetsk Cosmodrome

Loading…

Prochains Passages (prochaines 24 heures)

TLE

FraisSource: Space-Track

Époque: Sep 14, 2026, 14:58 UTC

1 20670U 90057A   26257.62420017  .00000038  00000-0  20261-4 0  9996
2 20670  82.5470 207.6805 0015634 185.2572 174.8428 13.84901714830014

Suivez METEOR 2-19 en temps réel avec AllMySat

Download on the App Store